Location: Banff
(51.1667°N, 115.5667°W)
Time: 08:46:44
(UTC+00:00)

Vanguard 1 - Pass Details

Date: 26 November 2020
Orbit: 648 x 3834 km, 34.3° (Epoch: 22 January)

Event Time Altitude Azimuth Distance (km) Brightness Sun altitude
Rises 14:08:45 0° 229° (SW) 3,868 12.8 -10.4°
Reaches altitude 10° 14:11:24 10° 217° (SW) 3,216 12.5 -10.1°
Maximum altitude 14:18:16 29° 161° (SSE) 2,819 12.9 -9.1°
Drops below altitude 10° 14:29:14 10° 109° (ESE) 5,264 15.5 -7.5°
Sets 14:35:08 0° 101° (E) 6,829 16.2 -6.6°
